Home   Weather   38°05'N, 84°30'W   Past weeks
Flag for USA

Past Weather in 38°05'N, 84°30'W, USA — Yesterday and Last 2 Weeks

Now
68 °F

Clear.


Feels Like: 68 °F
Forecast: 61 / 43 °F
Wind: 7 mph from South

Location: Blue Grass Airport

Current Time: Oct 15, 2019 at 8:40:50 pm

Latest Report: Oct 15, 2019 at 7:54 pm


Visibility: 10 mi

Pressure: 29.87 "Hg

Humidity: 65%

Dew Point: 56 °F

Location of 38°05'N, 84°30'WLocation

Past Weather in 38°05'N, 84°30'W — Graph

°F

38°05'N, 84°30'W Temperature Yesterday

Maximum temperature yesterday: 72 °F (at 3:54 pm)
Minimum temperature yesterday: 46 °F (at 7:54 am)
Average temperature yesterday: 58 °F

High & Low Weather Summary for the Past Weeks

 TemperatureHumidityPressure
High95 °F (Oct 1, 2:54 pm)93% (Oct 8, 5:11 am)30.25 "Hg (Oct 8, 5:11 am)
Low37 °F (Oct 13, 4:54 am)23% (Oct 13, 4:54 pm)29.86 "Hg (Oct 15, 6:54 pm)
Average65 °F63%30.09 "Hg
* Reported Sep 30 6:54 pm — Oct 15 6:54 pm, 38°05'N, 84°30'W. Weather by CustomWeather, © 2019

Note: Actual official high and low records may vary slightly from our data, if they occured in-between our weather recording intervals... More about our weather records

Advertising

38°05'N, 84°30'W Weather History for the Previous 24 Hours

Scroll right to see more
 ConditionsComfort  
Time TempWeatherWind HumidityBarometerVisibility
6:54 pm
Tue, Oct 15
71 °FSunny.8 mph59%29.86 "Hg10 mi
5:54 pm74 °FPassing clouds.12 mph53%29.88 "Hg10 mi
4:54 pm75 °FPassing clouds.14 mph48%29.90 "Hg10 mi
3:54 pm76 °FPassing clouds.17 mph45%29.90 "Hg10 mi
2:54 pm76 °FPartly sunny.16 mph40%29.94 "Hg10 mi
1:54 pm74 °FOvercast.8 mph36%29.97 "Hg10 mi
12:54 pm72 °FOvercast.8 mph37%30.00 "Hg10 mi
11:54 am69 °FSunny.8 mph39%30.03 "Hg10 mi
10:54 am66 °FSunny.9 mph45%30.05 "Hg10 mi
9:54 am59 °FSunny.7 mph60%30.07 "Hg10 mi
8:54 am53 °FSunny.6 mph69%30.07 "Hg10 mi
7:54 am49 °FSunny.6 mph74%30.08 "Hg10 mi
6:54 am47 °FClear.6 mph74%30.08 "Hg10 mi
5:54 am48 °FClear.3 mph71%30.09 "Hg10 mi
4:54 am47 °FClear.6 mph71%30.08 "Hg10 mi
3:54 am45 °FClear.3 mph74%30.08 "Hg10 mi
2:54 am46 °FClear.6 mph71%30.09 "Hg10 mi
1:54 am48 °FClear.3 mph66%30.10 "Hg10 mi
12:54 am46 °FClear.6 mph73%30.10 "Hg10 mi
11:54 pm
Mon, Oct 14
48 °FClear.5 mph68%30.11 "Hg10 mi
10:54 pm49 °FClear.6 mph66%30.11 "Hg10 mi
9:54 pm53 °FClear.No wind55%30.11 "Hg10 mi
8:54 pm60 °FClear.No wind38%30.10 "Hg10 mi
Weather by CustomWeather, © 2019

See weather overview